Time,TemperatureF,DewpointF,PressureIn,WindDirection,WindDirectionDegrees,WindSpeedMPH,WindSpeedGustMPH,Humidity,HourlyPrecipIn,Conditions,Clouds,dailyrainin,SoftwareType,DateUTC
2013-04-25 00:01:00,44.4,34.5,30.46,SW,225,8.0,12.0,68,0.00,,,0.00,meteohub,2013-04-25 05:01:00,
2013-04-25 00:06:00,44.2,34.3,30.46,SW,221,5.0,10.0,68,0.00,,,0.00,meteohub,2013-04-25 05:06:00,
2013-04-25 00:11:00,44.2,34.3,30.46,SW,218,7.0,10.0,68,0.00,,,0.00,meteohub,2013-04-25 05:11:00,
2013-04-25 00:17:00,44.2,34.3,30.47,SW,222,4.0,10.0,68,0.00,,,0.00,meteohub,2013-04-25 05:17:00,
2013-04-25 00:22:00,44.1,34.5,30.47,WSW,239,2.0,10.0,69,0.00,,,0.00,meteohub,2013-04-25 05:22:00,
2013-04-25 00:27:00,43.7,34.2,30.47,SW,221,4.0,10.0,69,0.00,,,0.00,meteohub,2013-04-25 05:27:00,
2013-04-25 00:32:00,43.5,34.3,30.47,SW,228,0.0,7.0,70,0.00,,,0.00,meteohub,2013-04-25 05:32:00,
2013-04-25 00:37:00,43.5,34.0,30.47,SW,225,4.0,5.0,69,0.00,,,0.00,meteohub,2013-04-25 05:37:00,
2013-04-25 00:42:00,43.3,33.8,30.47,SW,219,4.0,7.0,69,0.00,,,0.00,meteohub,2013-04-25 05:42:00,
2013-04-25 00:47:00,43.3,34.2,30.48,SW,228,3.0,7.0,70,0.00,,,0.00,meteohub,2013-04-25 05:47:00,
2013-04-25 00:52:00,43.2,34.0,30.48,WSW,246,2.0,7.0,70,0.00,,,0.00,meteohub,2013-04-25 05:52:00,
2013-04-25 00:57:00,43.2,33.6,30.48,SW,214,3.0,7.0,69,0.00,,,0.00,meteohub,2013-04-25 05:57:00,
2013-04-25 01:02:00,43.3,33.8,30.48,SSW,213,4.0,7.0,69,0.00,,,0.00,meteohub,2013-04-25 06:02:00,
2013-04-25 01:07:00,43.2,33.6,30.48,SW,235,3.0,8.0,69,0.00,,,0.00,meteohub,2013-04-25 06:07:00,
2013-04-25 01:12:00,43.0,33.4,30.48,SW,219,4.0,8.0,69,0.00,,,0.00,meteohub,2013-04-25 06:12:00,
2013-04-25 01:17:00,42.8,33.6,30.48,SSW,208,3.0,7.0,70,0.00,,,0.00,meteohub,2013-04-25 06:17:00,
2013-04-25 01:22:00,42.8,33.6,30.48,SW,221,1.0,5.0,70,0.00,,,0.00,meteohub,2013-04-25 06:22:00,
2013-04-25 01:27:00,42.8,33.6,30.48,SW,217,4.0,6.0,70,0.00,,,0.00,meteohub,2013-04-25 06:27:00,
2013-04-25 01:32:00,42.6,33.4,30.48,WSW,240,3.0,6.0,70,0.00,,,0.00,meteohub,2013-04-25 06:32:00,
2013-04-25 01:37:00,42.6,33.4,30.48,SW,224,5.0,6.0,70,0.00,,,0.00,meteohub,2013-04-25 06:37:00,
2013-04-25 01:42:00,42.6,33.1,30.48,SSW,211,4.0,6.0,69,0.00,,,0.00,meteohub,2013-04-25 06:42:00,
2013-04-25 01:47:00,42.6,33.1,30.48,SW,214,3.0,6.0,69,0.00,,,0.00,meteohub,2013-04-25 06:47:00,
2013-04-25 01:52:00,42.4,33.4,30.48,SSW,204,1.0,6.0,70,0.00,,,0.00,meteohub,2013-04-25 06:52:00,
2013-04-25 01:57:00,42.4,33.4,30.48,SSW,201,3.0,6.0,70,0.00,,,0.00,meteohub,2013-04-25 06:57:00,
2013-04-25 02:02:00,42.3,33.3,30.48,SSW,198,2.0,6.0,70,0.00,,,0.00,meteohub,2013-04-25 07:02:00,
2013-04-25 02:07:00,42.1,33.1,30.48,SW,224,2.0,5.0,70,0.00,,,0.00,meteohub,2013-04-25 07:07:00,
2013-04-25 02:12:00,42.1,33.1,30.48,SW,217,2.0,5.0,70,0.00,,,0.00,meteohub,2013-04-25 07:12:00,
2013-04-25 02:17:00,42.1,33.1,30.48,SW,217,4.0,6.0,70,0.00,,,0.00,meteohub,2013-04-25 07:17:00,
2013-04-25 02:22:00,42.1,33.1,30.47,SSW,195,4.0,6.0,70,0.00,,,0.00,meteohub,2013-04-25 07:22:00,
2013-04-25 02:27:00,42.1,33.1,30.47,SW,214,2.0,6.0,70,0.00,,,0.00,meteohub,2013-04-25 07:27:00,
2013-04-25 02:32:00,41.9,32.9,30.47,SW,235,1.0,6.0,70,0.00,,,0.00,meteohub,2013-04-25 07:32:00,
2013-04-25 02:37:00,41.9,32.5,30.47,SW,226,2.0,6.0,69,0.00,,,0.00,meteohub,2013-04-25 07:37:00,
2013-04-25 02:42:00,41.7,32.7,30.47,SSW,197,2.0,5.0,70,0.00,,,0.00,meteohub,2013-04-25 07:42:00,
2013-04-25 02:47:00,41.5,32.9,30.47,SW,214,1.0,4.0,71,0.00,,,0.00,meteohub,2013-04-25 07:47:00,
2013-04-25 02:52:00,41.5,32.9,30.47,WSW,249,3.0,4.0,71,0.00,,,0.00,meteohub,2013-04-25 07:52:00,
2013-04-25 02:57:00,41.5,32.5,30.47,SW,224,4.0,6.0,70,0.00,,,0.00,meteohub,2013-04-25 07:57:00,
2013-04-25 03:02:00,41.5,32.5,30.47,SW,226,3.0,6.0,70,0.00,,,0.00,meteohub,2013-04-25 08:02:00,
2013-04-25 03:07:00,41.4,32.4,30.46,SW,221,4.0,6.0,70,0.00,,,0.00,meteohub,2013-04-25 08:07:00,
2013-04-25 03:12:00,41.4,32.4,30.46,SW,233,4.0,5.0,70,0.00,,,0.00,meteohub,2013-04-25 08:12:00,
2013-04-25 03:17:00,41.4,32.7,30.46,SW,228,4.0,6.0,71,0.00,,,0.00,meteohub,2013-04-25 08:17:00,
2013-04-25 03:22:00,41.4,32.7,30.47,SW,221,3.0,6.0,71,0.00,,,0.00,meteohub,2013-04-25 08:22:00,
2013-04-25 03:27:00,41.2,32.5,30.47,SW,214,2.0,6.0,71,0.00,,,0.00,meteohub,2013-04-25 08:27:00,
2013-04-25 03:32:00,41.2,32.5,30.47,SW,233,4.0,6.0,71,0.00,,,0.00,meteohub,2013-04-25 08:32:00,
2013-04-25 03:37:00,41.0,32.4,30.47,WSW,243,3.0,6.0,71,0.00,,,0.00,meteohub,2013-04-25 08:37:00,
2013-04-25 03:42:00,40.8,32.5,30.47,SW,217,3.0,6.0,72,0.00,,,0.00,meteohub,2013-04-25 08:42:00,
2013-04-25 03:47:00,40.8,32.5,30.47,SW,225,4.0,6.0,72,0.00,,,0.00,meteohub,2013-04-25 08:47:00,
2013-04-25 03:52:00,40.8,32.5,30.47,SW,214,1.0,6.0,72,0.00,,,0.00,meteohub,2013-04-25 08:52:00,
2013-04-25 03:57:00,40.6,32.7,30.47,SW,214,1.0,6.0,73,0.00,,,0.00,meteohub,2013-04-25 08:57:00,
2013-04-25 04:02:00,40.5,32.5,30.47,SSE,155,1.0,5.0,73,0.00,,,0.00,meteohub,2013-04-25 09:02:00,
2013-04-25 04:07:00,40.3,32.4,30.47,SSE,158,1.0,3.0,73,0.00,,,0.00,meteohub,2013-04-25 09:07:00,
2013-04-25 04:12:00,39.9,32.4,30.48,SSE,162,2.0,3.0,74,0.00,,,0.00,meteohub,2013-04-25 09:12:00,
2013-04-25 04:17:00,39.9,32.4,30.47,SE,138,1.0,3.0,74,0.00,,,0.00,meteohub,2013-04-25 09:17:00,
2013-04-25 04:22:00,39.7,32.2,30.47,SSE,160,1.0,3.0,74,0.00,,,0.00,meteohub,2013-04-25 09:22:00,
2013-04-25 04:27:00,39.6,32.4,30.47,SSW,194,1.0,3.0,75,0.00,,,0.00,meteohub,2013-04-25 09:27:00,
2013-04-25 04:32:00,39.4,32.5,30.47,SSE,167,2.0,2.0,76,0.00,,,0.00,meteohub,2013-04-25 09:32:00,
2013-04-25 04:37:00,39.4,32.5,30.47,SSW,211,1.0,2.0,76,0.00,,,0.00,meteohub,2013-04-25 09:37:00,
2013-04-25 04:42:00,39.4,32.5,30.47,SW,217,2.0,2.0,76,0.00,,,0.00,meteohub,2013-04-25 09:42:00,
2013-04-25 04:47:00,39.4,32.7,30.47,SSW,194,2.0,2.0,77,0.00,,,0.00,meteohub,2013-04-25 09:47:00,
2013-04-25 04:52:00,39.2,32.5,30.47,SE,136,1.0,2.0,77,0.00,,,0.00,meteohub,2013-04-25 09:52:00,
2013-04-25 04:57:00,39.0,32.4,30.47,SSE,153,0.0,3.0,77,0.00,,,0.00,meteohub,2013-04-25 09:57:00,
2013-04-25 05:02:00,38.8,32.2,30.47,SSE,154,0.0,3.0,77,0.00,,,0.00,meteohub,2013-04-25 10:02:00,
2013-04-25 05:07:00,38.5,31.8,30.47,ESE,117,0.0,3.0,77,0.00,,,0.00,meteohub,2013-04-25 10:07:00,
2013-04-25 05:12:00,38.5,32.2,30.47,SE,134,0.0,1.0,78,0.00,,,0.00,meteohub,2013-04-25 10:12:00,
2013-04-25 05:17:00,38.1,31.8,30.47,ESE,118,0.0,0.0,78,0.00,,,0.00,meteohub,2013-04-25 10:17:00,
2013-04-25 05:22:00,38.1,31.8,30.47,ESE,105,0.0,0.0,78,0.00,,,0.00,meteohub,2013-04-25 10:22:00,
2013-04-25 05:27:00,38.1,32.2,30.47,ESE,112,0.0,0.0,79,0.00,,,0.00,meteohub,2013-04-25 10:27:00,
2013-04-25 05:32:00,37.9,32.0,30.47,ESE,112,0.0,0.0,79,0.00,,,0.00,meteohub,2013-04-25 10:32:00,
2013-04-25 05:37:00,37.9,32.0,30.48,ESE,112,0.0,0.0,79,0.00,,,0.00,meteohub,2013-04-25 10:37:00,
2013-04-25 05:42:00,37.6,32.0,30.48,ESE,112,0.0,0.0,80,0.00,,,0.00,meteohub,2013-04-25 10:42:00,
2013-04-25 05:47:00,37.6,32.0,30.48,ESE,112,0.0,0.0,80,0.00,,,0.00,meteohub,2013-04-25 10:47:00,
2013-04-25 05:52:00,37.4,31.8,30.48,ESE,112,0.0,0.0,80,0.00,,,0.00,meteohub,2013-04-25 10:52:00,
2013-04-25 05:57:00,37.2,31.6,30.48,ESE,111,0.0,0.0,80,0.00,,,0.00,meteohub,2013-04-25 10:57:00,
2013-04-25 06:02:00,37.2,32.0,30.48,ESE,111,0.0,0.0,81,0.00,,,0.00,meteohub,2013-04-25 11:02:00,
2013-04-25 06:07:00,37.0,31.8,30.48,ESE,111,0.0,0.0,81,0.00,,,0.00,meteohub,2013-04-25 11:07:00,
2013-04-25 06:12:00,37.2,32.2,30.48,ESE,112,0.0,0.0,82,0.00,,,0.00,meteohub,2013-04-25 11:12:00,
2013-04-25 06:17:00,37.2,32.0,30.48,ESE,115,0.0,0.0,81,0.00,,,0.00,meteohub,2013-04-25 11:17:00,
2013-04-25 06:22:00,37.2,32.0,30.48,SE,127,0.0,0.0,81,0.00,,,0.00,meteohub,2013-04-25 11:22:00,
2013-04-25 06:27:00,37.2,32.0,30.48,ESE,118,0.0,0.0,81,0.00,,,0.00,meteohub,2013-04-25 11:27:00,
2013-04-25 06:32:00,37.2,32.0,30.48,ESE,117,0.0,0.0,81,0.00,,,0.00,meteohub,2013-04-25 11:32:00,
2013-04-25 06:37:00,37.0,31.8,30.48,ESE,121,2.0,0.0,81,0.00,,,0.00,meteohub,2013-04-25 11:37:00,
2013-04-25 06:42:00,37.0,31.8,30.48,SE,127,2.0,0.0,81,0.00,,,0.00,meteohub,2013-04-25 11:42:00,
2013-04-25 06:47:00,37.0,32.0,30.48,SE,132,2.0,4.0,82,0.00,,,0.00,meteohub,2013-04-25 11:47:00,
2013-04-25 06:52:00,37.0,32.0,30.48,SE,124,2.0,4.0,82,0.00,,,0.00,meteohub,2013-04-25 11:52:00,
2013-04-25 06:57:00,37.2,32.2,30.48,ESE,116,2.0,3.0,82,0.00,,,0.00,meteohub,2013-04-25 11:57:00,
2013-04-25 07:02:00,37.6,32.4,30.49,SE,134,1.0,3.0,81,0.00,,,0.00,meteohub,2013-04-25 12:02:00,
2013-04-25 07:07:00,37.8,32.5,30.49,SE,129,2.0,4.0,81,0.00,,,0.00,meteohub,2013-04-25 12:07:00,
2013-04-25 07:12:00,38.1,32.5,30.49,SE,132,2.0,4.0,80,0.00,,,0.00,meteohub,2013-04-25 12:12:00,
2013-04-25 07:17:00,38.5,32.5,30.49,SE,124,1.0,4.0,79,0.00,,,0.00,meteohub,2013-04-25 12:17:00,
2013-04-25 07:22:00,39.0,33.1,30.49,ESE,117,2.0,4.0,79,0.00,,,0.00,meteohub,2013-04-25 12:22:00,
2013-04-25 07:27:00,39.2,32.9,30.49,SE,134,2.0,4.0,78,0.00,,,0.00,meteohub,2013-04-25 12:27:00,
2013-04-25 07:32:00,39.6,33.3,30.49,SSE,147,1.0,4.0,78,0.00,,,0.00,meteohub,2013-04-25 12:32:00,
2013-04-25 07:37:00,39.9,33.3,30.49,ESE,102,3.0,4.0,77,0.00,,,0.00,meteohub,2013-04-25 12:37:00,
2013-04-25 07:42:00,40.3,33.3,30.49,ESE,122,2.0,4.0,76,0.00,,,0.00,meteohub,2013-04-25 12:42:00,
2013-04-25 07:47:00,40.8,33.8,30.50,SSE,153,2.0,4.0,76,0.00,,,0.00,meteohub,2013-04-25 12:47:00,
2013-04-25 07:52:00,41.5,34.2,30.50,SSE,155,2.0,4.0,75,0.00,,,0.00,meteohub,2013-04-25 12:52:00,
2013-04-25 07:57:00,42.3,34.2,30.50,SE,135,1.0,3.0,73,0.00,,,0.00,meteohub,2013-04-25 12:57:00,
2013-04-25 08:02:00,43.2,34.7,30.50,SSE,162,0.0,3.0,72,0.00,,,0.00,meteohub,2013-04-25 13:02:00,
2013-04-25 08:07:00,44.2,35.1,30.50,SE,131,1.0,2.0,70,0.00,,,0.00,meteohub,2013-04-25 13:07:00,
2013-04-25 08:12:00,44.2,34.7,30.50,East,101,1.0,2.0,69,0.00,,,0.00,meteohub,2013-04-25 13:12:00,
2013-04-25 08:17:00,44.1,34.9,30.50,ESE,112,1.0,2.0,70,0.00,,,0.00,meteohub,2013-04-25 13:17:00,
2013-04-25 08:22:00,44.8,35.6,30.50,ESE,106,2.0,2.0,70,0.00,,,0.00,meteohub,2013-04-25 13:22:00,
2013-04-25 08:27:00,44.8,35.2,30.50,SE,143,1.0,3.0,69,0.00,,,0.00,meteohub,2013-04-25 13:27:00,
2013-04-25 08:32:00,45.1,34.9,30.50,SSW,198,0.0,3.0,67,0.00,,,0.00,meteohub,2013-04-25 13:32:00,
2013-04-25 08:37:00,46.8,36.0,30.50,ESE,119,2.0,3.0,66,0.00,,,0.00,meteohub,2013-04-25 13:37:00,
2013-04-25 08:42:00,46.6,35.4,30.50,SSW,211,3.0,3.0,65,0.00,,,0.00,meteohub,2013-04-25 13:42:00,
2013-04-25 08:47:00,46.8,35.6,30.50,South,184,0.0,3.0,65,0.00,,,0.00,meteohub,2013-04-25 13:47:00,
2013-04-25 08:52:00,46.9,35.4,30.50,SW,222,2.0,3.0,64,0.00,,,0.00,meteohub,2013-04-25 13:52:00,
2013-04-25 08:57:00,47.3,36.5,30.50,SW,222,1.0,4.0,66,0.00,,,0.00,meteohub,2013-04-25 13:57:00,
2013-04-25 09:02:00,48.0,36.0,30.50,SE,135,0.0,4.0,63,0.00,,,0.00,meteohub,2013-04-25 14:02:00,
2013-04-25 09:07:00,48.7,36.3,30.50,SE,143,2.0,4.0,62,0.00,,,0.00,meteohub,2013-04-25 14:07:00,
2013-04-25 09:12:00,48.6,36.1,30.50,SW,215,1.0,4.0,62,0.00,,,0.00,meteohub,2013-04-25 14:12:00,
2013-04-25 09:17:00,48.9,36.5,30.49,SW,231,1.0,4.0,62,0.00,,,0.00,meteohub,2013-04-25 14:17:00,
2013-04-25 09:21:00,49.6,37.2,30.49,SSE,152,1.0,4.0,62,0.00,,,0.00,meteohub,2013-04-25 14:21:00,
2013-04-25 09:27:00,50.0,36.7,30.49,SSW,193,2.0,3.0,60,0.00,,,0.00,meteohub,2013-04-25 14:27:00,
2013-04-25 09:32:00,50.4,37.0,30.49,West,266,3.0,4.0,60,0.00,,,0.00,meteohub,2013-04-25 14:32:00,
2013-04-25 09:37:00,50.4,36.1,30.49,SW,233,1.0,4.0,58,0.00,,,0.00,meteohub,2013-04-25 14:37:00,
2013-04-25 09:42:00,50.5,36.3,30.49,SW,218,2.0,6.0,58,0.00,,,0.00,meteohub,2013-04-25 14:42:00,
2013-04-25 09:47:00,50.7,36.9,30.49,SE,146,1.0,6.0,59,0.00,,,0.00,meteohub,2013-04-25 14:47:00,
2013-04-25 09:52:00,51.3,37.0,30.49,SW,229,2.0,6.0,58,0.00,,,0.00,meteohub,2013-04-25 14:52:00,
2013-04-25 09:57:00,52.0,37.6,30.49,SW,224,1.0,8.0,58,0.00,,,0.00,meteohub,2013-04-25 14:57:00,
2013-04-25 10:02:00,52.9,38.1,30.50,SW,226,3.0,8.0,57,0.00,,,0.00,meteohub,2013-04-25 15:02:00,
2013-04-25 10:07:00,53.6,38.3,30.49,SE,145,3.0,6.0,56,0.00,,,0.00,meteohub,2013-04-25 15:07:00,
2013-04-25 10:12:00,53.8,37.9,30.49,SSW,203,3.0,7.0,55,0.00,,,0.00,meteohub,2013-04-25 15:12:00,
2013-04-25 10:17:00,53.4,38.1,30.49,WSW,257,1.0,8.0,56,0.00,,,0.00,meteohub,2013-04-25 15:17:00,
2013-04-25 10:22:00,53.8,38.5,30.49,SW,231,2.0,8.0,56,0.00,,,0.00,meteohub,2013-04-25 15:22:00,
2013-04-25 10:27:00,54.5,39.2,30.49,SSE,157,2.0,9.0,56,0.00,,,0.00,meteohub,2013-04-25 15:27:00,
2013-04-25 10:32:00,55.2,38.8,30.49,SSW,208,3.0,9.0,54,0.00,,,0.00,meteohub,2013-04-25 15:32:00,
2013-04-25 10:37:00,54.9,38.5,30.49,South,176,2.0,9.0,54,0.00,,,0.00,meteohub,2013-04-25 15:37:00,
2013-04-25 10:42:00,55.0,38.3,30.48,SSE,155,2.0,7.0,53,0.00,,,0.00,meteohub,2013-04-25 15:42:00,
2013-04-25 10:47:00,55.6,38.3,30.48,WSW,238,3.0,7.0,52,0.00,,,0.00,meteohub,2013-04-25 15:47:00,
2013-04-25 10:52:00,55.9,38.5,30.48,SW,218,5.0,5.0,52,0.00,,,0.00,meteohub,2013-04-25 15:52:00,
2013-04-25 10:57:00,56.7,38.7,30.48,SW,215,3.0,9.0,51,0.00,,,0.00,meteohub,2013-04-25 15:57:00,
2013-04-25 11:02:00,57.0,38.1,30.48,SSW,194,2.0,9.0,49,0.00,,,0.00,meteohub,2013-04-25 16:02:00,
2013-04-25 11:07:00,57.2,38.3,30.48,SE,143,3.0,9.0,49,0.00,,,0.00,meteohub,2013-04-25 16:07:00,
2013-04-25 11:12:00,57.0,37.0,30.48,SW,224,9.0,9.0,47,0.00,,,0.00,meteohub,2013-04-25 16:12:00,
2013-04-25 11:18:00,56.8,38.5,30.48,SW,214,2.0,10.0,50,0.00,,,0.00,meteohub,2013-04-25 16:18:00,
2013-04-25 11:23:00,57.0,39.0,30.48,SW,218,4.0,11.0,51,0.00,,,0.00,meteohub,2013-04-25 16:23:00,
2013-04-25 11:28:00,57.7,38.7,30.48,SSE,163,6.0,11.0,49,0.00,,,0.00,meteohub,2013-04-25 16:28:00,
2013-04-25 11:33:00,58.3,38.7,30.48,SW,228,6.0,11.0,48,0.00,,,0.00,meteohub,2013-04-25 16:33:00,
2013-04-25 11:38:00,58.6,40.1,30.48,SW,236,4.0,9.0,50,0.00,,,0.00,meteohub,2013-04-25 16:38:00,
2013-04-25 11:43:00,58.8,39.7,30.48,South,190,4.0,11.0,49,0.00,,,0.00,meteohub,2013-04-25 16:43:00,
2013-04-25 11:48:00,59.7,40.5,30.48,WSW,246,11.0,13.0,49,0.00,,,0.00,meteohub,2013-04-25 16:48:00,
2013-04-25 11:53:00,59.2,39.0,30.48,SSW,193,4.0,13.0,47,0.00,,,0.00,meteohub,2013-04-25 16:53:00,
2013-04-25 11:58:00,60.1,39.7,30.48,South,187,6.0,12.0,47,0.00,,,0.00,meteohub,2013-04-25 16:58:00,
2013-04-25 12:03:00,60.4,39.6,30.48,SSW,203,6.0,12.0,46,0.00,,,0.00,meteohub,2013-04-25 17:03:00,
2013-04-25 12:08:00,61.0,37.8,30.47,SW,225,8.0,11.0,42,0.00,,,0.00,meteohub,2013-04-25 17:08:00,
2013-04-25 12:13:00,61.3,38.1,30.47,SW,218,9.0,13.0,42,0.00,,,0.00,meteohub,2013-04-25 17:13:00,
2013-04-25 12:18:00,61.3,38.1,30.46,SSW,195,6.0,13.0,42,0.00,,,0.00,meteohub,2013-04-25 17:18:00,
2013-04-25 12:23:00,62.1,36.1,30.46,SSW,211,7.0,13.0,38,0.00,,,0.00,meteohub,2013-04-25 17:23:00,
2013-04-25 12:28:00,62.1,34.2,30.46,SSE,158,12.0,13.0,35,0.00,,,0.00,meteohub,2013-04-25 17:28:00,
2013-04-25 12:33:00,62.1,34.9,30.46,SSW,197,6.0,20.0,36,0.00,,,0.00,meteohub,2013-04-25 17:33:00,
2013-04-25 12:39:00,62.4,35.1,30.46,SSE,158,7.0,20.0,36,0.00,,,0.00,meteohub,2013-04-25 17:39:00,
2013-04-25 12:44:00,62.4,34.3,30.45,SW,221,12.0,20.0,35,0.00,,,0.00,meteohub,2013-04-25 17:44:00,
2013-04-25 12:49:00,63.1,37.8,30.45,SSE,147,4.0,17.0,39,0.00,,,0.00,meteohub,2013-04-25 17:49:00,
2013-04-25 12:54:00,63.1,38.5,30.45,South,170,6.0,17.0,40,0.00,,,0.00,meteohub,2013-04-25 17:54:00,
2013-04-25 12:59:00,63.3,39.2,30.45,South,188,2.0,17.0,41,0.00,,,0.00,meteohub,2013-04-25 17:59:00,
2013-04-25 13:04:00,63.3,36.7,30.44,SW,224,14.0,14.0,37,0.00,,,0.00,meteohub,2013-04-25 18:04:00,
2013-04-25 13:09:00,63.5,36.7,30.44,SE,136,5.0,15.0,37,0.00,,,0.00,meteohub,2013-04-25 18:09:00,
2013-04-25 13:14:00,63.9,35.6,30.44,South,185,8.0,16.0,35,0.00,,,0.00,meteohub,2013-04-25 18:14:00,
2013-04-25 13:19:00,63.9,34.9,30.44,SSW,211,10.0,16.0,34,0.00,,,0.00,meteohub,2013-04-25 18:19:00,
2013-04-25 13:24:00,64.0,35.8,30.43,SSE,153,4.0,15.0,35,0.00,,,0.00,meteohub,2013-04-25 18:24:00,
2013-04-25 13:29:00,64.6,35.6,30.43,SSW,210,6.0,15.0,34,0.00,,,0.00,meteohub,2013-04-25 18:29:00,
2013-04-25 13:34:00,64.2,36.0,30.43,SW,217,4.0,17.0,35,0.00,,,0.00,meteohub,2013-04-25 18:34:00,
2013-04-25 13:39:00,64.4,36.9,30.42,SW,222,8.0,22.0,36,0.00,,,0.00,meteohub,2013-04-25 18:39:00,
2013-04-25 13:44:00,64.8,36.5,30.42,SSE,160,8.0,22.0,35,0.00,,,0.00,meteohub,2013-04-25 18:44:00,
2013-04-25 13:49:00,64.9,35.1,30.42,SW,224,16.0,22.0,33,0.00,,,0.00,meteohub,2013-04-25 18:49:00,
2013-04-25 13:54:00,65.1,34.5,30.41,SSW,208,12.0,18.0,32,0.00,,,0.00,meteohub,2013-04-25 18:54:00,
2013-04-25 13:59:00,65.8,36.7,30.42,SW,232,8.0,19.0,34,0.00,,,0.00,meteohub,2013-04-25 18:59:00,
2013-04-25 14:04:00,66.0,34.5,30.41,SE,144,11.0,19.0,31,0.00,,,0.00,meteohub,2013-04-25 19:04:00,
2013-04-25 14:09:00,66.0,35.2,30.41,SSE,149,9.0,19.0,32,0.00,,,0.00,meteohub,2013-04-25 19:09:00,
2013-04-25 14:14:00,65.8,35.2,30.41,South,179,14.0,19.0,32,0.00,,,0.00,meteohub,2013-04-25 19:14:00,
2013-04-25 14:19:00,66.0,32.9,30.41,SW,229,10.0,19.0,29,0.00,,,0.00,meteohub,2013-04-25 19:19:00,
2013-04-25 14:24:00,65.8,34.3,30.41,SW,214,17.0,22.0,31,0.00,,,0.00,meteohub,2013-04-25 19:24:00,
2013-04-25 14:29:00,65.8,34.3,30.41,SW,231,15.0,22.0,31,0.00,,,0.00,meteohub,2013-04-25 19:29:00,
2013-04-25 14:34:00,65.7,35.1,30.41,SW,222,14.0,22.0,32,0.00,,,0.00,meteohub,2013-04-25 19:34:00,
2013-04-25 14:39:00,66.0,36.1,30.40,SW,214,16.0,21.0,33,0.00,,,0.00,meteohub,2013-04-25 19:39:00,
2013-04-25 14:44:00,65.8,36.7,30.40,South,177,9.0,22.0,34,0.00,,,0.00,meteohub,2013-04-25 19:44:00,
2013-04-25 14:49:00,66.9,36.9,30.40,South,177,6.0,22.0,33,0.00,,,0.00,meteohub,2013-04-25 19:49:00,
2013-04-25 14:54:00,67.3,37.2,30.40,SSE,149,6.0,22.0,33,0.00,,,0.00,meteohub,2013-04-25 19:54:00,
2013-04-25 14:59:00,66.9,35.2,30.40,SW,232,7.0,20.0,31,0.00,,,0.00,meteohub,2013-04-25 19:59:00,
2013-04-25 15:04:00,66.7,35.1,30.40,SW,217,13.0,19.0,31,0.00,,,0.00,meteohub,2013-04-25 20:04:00,
2013-04-25 15:09:00,66.7,36.0,30.40,SW,214,12.0,23.0,32,0.00,,,0.00,meteohub,2013-04-25 20:09:00,
2013-04-25 15:14:00,66.6,37.4,30.39,South,181,6.0,23.0,34,0.00,,,0.00,meteohub,2013-04-25 20:14:00,
2013-04-25 15:19:00,66.6,36.5,30.38,SW,221,15.0,23.0,33,0.00,,,0.00,meteohub,2013-04-25 20:19:00,
2013-04-25 15:24:00,66.9,36.1,30.38,SSW,206,15.0,19.0,32,0.00,,,0.00,meteohub,2013-04-25 20:24:00,
2013-04-25 15:29:00,67.1,37.0,30.38,SW,216,17.0,18.0,33,0.00,,,0.00,meteohub,2013-04-25 20:29:00,
2013-04-25 15:34:00,67.3,37.2,30.38,South,187,11.0,21.0,33,0.00,,,0.00,meteohub,2013-04-25 20:34:00,
2013-04-25 15:39:00,66.9,37.6,30.38,SW,222,6.0,21.0,34,0.00,,,0.00,meteohub,2013-04-25 20:39:00,
2013-04-25 15:44:00,66.4,37.2,30.37,SSE,163,12.0,20.0,34,0.00,,,0.00,meteohub,2013-04-25 20:44:00,
2013-04-25 15:49:00,66.0,37.6,30.37,SW,217,13.0,22.0,35,0.00,,,0.00,meteohub,2013-04-25 20:49:00,
2013-04-25 15:54:00,66.0,39.0,30.37,SSE,152,11.0,22.0,37,0.00,,,0.00,meteohub,2013-04-25 20:54:00,
2013-04-25 15:59:00,66.0,39.0,30.37,SSE,163,6.0,22.0,37,0.00,,,0.00,meteohub,2013-04-25 20:59:00,
2013-04-25 16:04:00,65.8,39.6,30.37,SSW,199,11.0,18.0,38,0.00,,,0.00,meteohub,2013-04-25 21:04:00,
2013-04-25 16:09:00,65.8,38.8,30.36,SSE,158,6.0,18.0,37,0.00,,,0.00,meteohub,2013-04-25 21:09:00,
2013-04-25 16:15:00,65.8,38.8,30.36,South,184,6.0,18.0,37,0.00,,,0.00,meteohub,2013-04-25 21:15:00,
2013-04-25 16:20:00,65.8,39.6,30.35,SSW,198,11.0,18.0,38,0.00,,,0.00,meteohub,2013-04-25 21:20:00,
2013-04-25 16:25:00,65.8,38.8,30.35,SSE,167,12.0,19.0,37,0.00,,,0.00,meteohub,2013-04-25 21:25:00,
2013-04-25 16:30:00,65.8,39.6,30.34,SSW,204,8.0,19.0,38,0.00,,,0.00,meteohub,2013-04-25 21:30:00,
2013-04-25 16:35:00,66.4,38.7,30.34,SSE,159,6.0,19.0,36,0.00,,,0.00,meteohub,2013-04-25 21:35:00,
2013-04-25 16:40:00,66.2,39.2,30.34,SE,132,7.0,19.0,37,0.00,,,0.00,meteohub,2013-04-25 21:40:00,
2013-04-25 16:45:00,65.8,38.1,30.34,SW,216,7.0,16.0,36,0.00,,,0.00,meteohub,2013-04-25 21:45:00,
2013-04-25 16:50:00,65.7,38.7,30.34,SW,217,10.0,18.0,37,0.00,,,0.00,meteohub,2013-04-25 21:50:00,
2013-04-25 16:55:00,65.3,38.3,30.34,SW,224,11.0,18.0,37,0.00,,,0.00,meteohub,2013-04-25 21:55:00,
2013-04-25 17:00:00,65.3,38.3,30.34,SSW,203,10.0,20.0,37,0.00,,,0.00,meteohub,2013-04-25 22:00:00,
2013-04-25 17:05:00,65.1,38.8,30.34,SSW,204,5.0,20.0,38,0.00,,,0.00,meteohub,2013-04-25 22:05:00,
2013-04-25 17:10:00,65.1,38.8,30.34,South,188,4.0,20.0,38,0.00,,,0.00,meteohub,2013-04-25 22:10:00,
2013-04-25 17:15:00,64.8,37.9,30.33,South,180,13.0,18.0,37,0.00,,,0.00,meteohub,2013-04-25 22:15:00,
2013-04-25 17:20:00,64.6,39.7,30.34,SW,218,9.0,18.0,40,0.00,,,0.00,meteohub,2013-04-25 22:20:00,
2013-04-25 17:25:00,64.6,39.0,30.33,SW,215,10.0,17.0,39,0.00,,,0.00,meteohub,2013-04-25 22:25:00,
2013-04-25 17:30:00,64.2,37.4,30.33,SSW,201,11.0,17.0,37,0.00,,,0.00,meteohub,2013-04-25 22:30:00,
2013-04-25 17:35:00,64.0,37.9,30.33,SW,214,9.0,17.0,38,0.00,,,0.00,meteohub,2013-04-25 22:35:00,
2013-04-25 17:40:00,63.7,37.6,30.32,SSW,201,9.0,20.0,38,0.00,,,0.00,meteohub,2013-04-25 22:40:00,
2013-04-25 17:45:00,63.5,37.4,30.32,SSW,205,7.0,20.0,38,0.00,,,0.00,meteohub,2013-04-25 22:45:00,
2013-04-25 17:50:00,63.3,38.7,30.32,SSW,192,8.0,15.0,40,0.00,,,0.00,meteohub,2013-04-25 22:50:00,
2013-04-25 17:55:00,63.1,39.0,30.32,SW,217,6.0,15.0,41,0.00,,,0.00,meteohub,2013-04-25 22:55:00,
2013-04-25 18:00:00,63.0,39.6,30.32,SW,218,6.0,15.0,42,0.00,,,0.00,meteohub,2013-04-25 23:00:00,
2013-04-25 18:05:00,62.6,40.5,30.31,SSW,204,7.0,15.0,44,0.00,,,0.00,meteohub,2013-04-25 23:05:00,
2013-04-25 18:10:00,62.2,41.2,30.31,South,191,6.0,13.0,46,0.00,,,0.00,meteohub,2013-04-25 23:10:00,
2013-04-25 18:15:00,62.2,41.7,30.31,SSE,158,6.0,13.0,47,0.00,,,0.00,meteohub,2013-04-25 23:15:00,
2013-04-25 18:20:00,62.1,41.5,30.31,South,173,7.0,12.0,47,0.00,,,0.00,meteohub,2013-04-25 23:20:00,
2013-04-25 18:25:00,61.9,41.9,30.30,SSW,194,7.0,12.0,48,0.00,,,0.00,meteohub,2013-04-25 23:25:00,
2013-04-25 18:30:00,61.5,42.3,30.30,SSE,153,9.0,12.0,49,0.00,,,0.00,meteohub,2013-04-25 23:30:00,
2013-04-25 18:35:00,61.3,42.6,30.30,South,186,9.0,12.0,50,0.00,,,0.00,meteohub,2013-04-25 23:35:00,
2013-04-25 18:40:00,61.2,43.0,30.30,SSW,198,7.0,12.0,51,0.00,,,0.00,meteohub,2013-04-25 23:40:00,
2013-04-25 18:45:00,61.2,43.0,30.30,SSW,199,6.0,12.0,51,0.00,,,0.00,meteohub,2013-04-25 23:45:00,
2013-04-25 18:50:00,61.2,43.3,30.30,South,190,4.0,12.0,52,0.00,,,0.00,meteohub,2013-04-25 23:50:00,
2013-04-25 18:55:00,61.0,43.7,30.30,SW,222,6.0,11.0,53,0.00,,,0.00,meteohub,2013-04-25 23:55:00,
2013-04-25 19:00:00,60.8,43.5,30.29,South,187,12.0,12.0,53,0.00,,,0.00,meteohub,2013-04-26 00:00:00,
2013-04-25 19:05:00,60.6,43.9,30.29,SSW,200,6.0,14.0,54,0.00,,,0.00,meteohub,2013-04-26 00:05:00,
2013-04-25 19:10:00,60.6,43.0,30.28,SSE,162,9.0,14.0,52,0.00,,,0.00,meteohub,2013-04-26 00:10:00,
2013-04-25 19:15:00,60.6,43.3,30.27,South,190,9.0,14.0,53,0.00,,,0.00,meteohub,2013-04-26 00:15:00,
2013-04-25 19:21:00,60.4,43.2,30.27,South,173,6.0,14.0,53,0.00,,,0.00,meteohub,2013-04-26 00:21:00,
2013-04-25 19:26:00,60.6,43.0,30.26,SE,140,6.0,14.0,52,0.00,,,0.00,meteohub,2013-04-26 00:26:00,
2013-04-25 19:31:00,60.6,43.0,30.27,SSE,160,7.0,16.0,52,0.00,,,0.00,meteohub,2013-04-26 00:31:00,
2013-04-25 19:36:00,60.4,42.8,30.27,SSE,155,10.0,18.0,52,0.00,,,0.00,meteohub,2013-04-26 00:36:00,
2013-04-25 19:41:00,60.4,43.2,30.27,SSW,205,8.0,18.0,53,0.00,,,0.00,meteohub,2013-04-26 00:41:00,
2013-04-25 19:46:00,60.1,43.3,30.27,SSW,210,7.0,18.0,54,0.00,,,0.00,meteohub,2013-04-26 00:46:00,
2013-04-25 19:51:00,59.7,44.1,30.27,SW,215,7.0,18.0,56,0.00,,,0.00,meteohub,2013-04-26 00:51:00,
2013-04-25 19:56:00,59.5,43.9,30.26,SSW,205,10.0,18.0,56,0.00,,,0.00,meteohub,2013-04-26 00:56:00,
2013-04-25 20:01:00,59.5,43.9,30.26,SSE,160,10.0,18.0,56,0.00,,,0.00,meteohub,2013-04-26 01:01:00,
2013-04-25 20:06:00,59.5,43.9,30.26,SSE,155,7.0,18.0,56,0.00,,,0.00,meteohub,2013-04-26 01:06:00,
2013-04-25 20:11:00,59.5,43.9,30.26,SSE,163,12.0,18.0,56,0.00,,,0.00,meteohub,2013-04-26 01:11:00,
2013-04-25 20:16:00,59.4,44.1,30.25,SSW,199,7.0,15.0,57,0.00,,,0.00,meteohub,2013-04-26 01:16:00,
2013-04-25 20:21:00,59.4,44.1,30.25,SSW,193,11.0,16.0,57,0.00,,,0.00,meteohub,2013-04-26 01:21:00,
2013-04-25 20:26:00,59.2,43.9,30.25,SSW,211,14.0,16.0,57,0.00,,,0.00,meteohub,2013-04-26 01:26:00,
2013-04-25 20:31:00,59.2,43.9,30.25,SSE,149,12.0,17.0,57,0.00,,,0.00,meteohub,2013-04-26 01:31:00,
2013-04-25 20:36:00,59.2,43.9,30.25,SW,214,17.0,18.0,57,0.00,,,0.00,meteohub,2013-04-26 01:36:00,
2013-04-25 20:41:00,59.2,43.0,30.24,SE,145,9.0,18.0,55,0.00,,,0.00,meteohub,2013-04-26 01:41:00,
2013-04-25 20:46:00,59.2,42.6,30.24,SSE,162,16.0,18.0,54,0.00,,,0.00,meteohub,2013-04-26 01:46:00,
2013-04-25 20:51:00,59.2,42.1,30.23,South,187,15.0,21.0,53,0.00,,,0.00,meteohub,2013-04-26 01:51:00,
2013-04-25 20:56:00,59.4,41.2,30.22,South,173,19.0,21.0,51,0.00,,,0.00,meteohub,2013-04-26 01:56:00,
2013-04-25 21:01:00,59.5,40.3,30.20,SE,135,15.0,27.0,49,0.00,,,0.00,meteohub,2013-04-26 02:01:00,
2013-04-25 21:06:00,59.7,38.8,30.19,SSE,167,13.0,29.0,46,0.00,,,0.00,meteohub,2013-04-26 02:06:00,
2013-04-25 21:11:00,60.1,38.1,30.19,SSE,162,20.0,30.0,44,0.00,,,0.00,meteohub,2013-04-26 02:11:00,
2013-04-25 21:16:00,60.4,36.7,30.19,SSE,147,21.0,31.0,41,0.00,,,0.00,meteohub,2013-04-26 02:16:00,
2013-04-25 21:21:00,60.6,36.1,30.19,SE,129,15.0,31.0,40,0.00,,,0.00,meteohub,2013-04-26 02:21:00,
2013-04-25 21:26:00,61.0,35.2,30.19,SE,138,10.0,31.0,38,0.00,,,0.00,meteohub,2013-04-26 02:26:00,
2013-04-25 21:31:00,61.3,34.9,30.19,South,173,8.0,31.0,37,0.00,,,0.00,meteohub,2013-04-26 02:31:00,
2013-04-25 21:36:00,61.5,34.3,30.19,SE,126,20.0,29.0,36,0.00,,,0.00,meteohub,2013-04-26 02:36:00,
2013-04-25 21:41:00,61.5,34.3,30.21,SSW,208,8.0,28.0,36,0.00,,,0.00,meteohub,2013-04-26 02:41:00,
2013-04-25 21:46:00,61.7,34.5,30.20,SSE,163,14.0,28.0,36,0.00,,,0.00,meteohub,2013-04-26 02:46:00,
2013-04-25 21:51:00,61.9,34.0,30.21,SSE,153,10.0,23.0,35,0.00,,,0.00,meteohub,2013-04-26 02:51:00,
2013-04-25 21:56:00,61.9,33.3,30.20,SSW,212,16.0,27.0,34,0.00,,,0.00,meteohub,2013-04-26 02:56:00,
2013-04-25 22:01:00,61.9,34.0,30.20,SSE,158,25.0,27.0,35,0.00,,,0.00,meteohub,2013-04-26 03:01:00,
2013-04-25 22:06:00,61.9,34.0,30.20,ESE,119,15.0,28.0,35,0.00,,,0.00,meteohub,2013-04-26 03:06:00,
2013-04-25 22:12:00,61.9,33.3,30.21,SSE,167,11.0,28.0,34,0.00,,,0.00,meteohub,2013-04-26 03:12:00,
2013-04-25 22:17:00,61.9,34.0,30.22,SSW,208,15.0,28.0,35,0.00,,,0.00,meteohub,2013-04-26 03:17:00,
2013-04-25 22:21:00,61.7,33.1,30.22,South,169,16.0,28.0,34,0.00,,,0.00,meteohub,2013-04-26 03:21:00,
2013-04-25 22:26:00,61.5,33.6,30.23,South,188,18.0,30.0,35,0.00,,,0.00,meteohub,2013-04-26 03:26:00,
2013-04-25 22:31:00,61.3,33.4,30.23,SSE,162,17.0,30.0,35,0.00,,,0.00,meteohub,2013-04-26 03:31:00,
2013-04-25 22:37:00,61.0,33.8,30.22,South,170,14.0,30.0,36,0.00,,,0.00,meteohub,2013-04-26 03:37:00,
2013-04-25 22:41:00,60.6,33.4,30.22,SSW,194,16.0,30.0,36,0.00,,,0.00,meteohub,2013-04-26 03:41:00,
2013-04-25 22:46:00,60.4,34.0,30.22,SSW,197,15.0,26.0,37,0.00,,,0.00,meteohub,2013-04-26 03:46:00,
2013-04-25 22:52:00,60.3,33.8,30.22,SSE,150,16.0,28.0,37,0.00,,,0.00,meteohub,2013-04-26 03:52:00,
2013-04-25 22:57:00,60.1,33.8,30.22,SSE,155,17.0,30.0,37,0.00,,,0.00,meteohub,2013-04-26 03:57:00,
2013-04-25 23:01:00,60.1,33.8,30.22,SSE,153,16.0,30.0,37,0.00,,,0.00,meteohub,2013-04-26 04:01:00,
2013-04-25 23:02:00,59.9,33.6,30.22,SE,135,9.0,30.0,37,0.00,,,0.00,meteohub,2013-04-26 04:02:00,
2013-04-25 23:07:00,59.7,33.4,30.22,SE,139,15.0,30.0,37,0.00,,,0.00,meteohub,2013-04-26 04:07:00,
2013-04-25 23:12:00,59.7,33.4,30.22,SSE,155,18.0,26.0,37,0.00,,,0.00,meteohub,2013-04-26 04:12:00,
2013-04-25 23:17:00,59.5,34.0,30.22,SE,142,9.0,25.0,38,0.00,,,0.00,meteohub,2013-04-26 04:17:00,
2013-04-25 23:22:00,59.5,34.0,30.23,SE,140,17.0,25.0,38,0.00,,,0.00,meteohub,2013-04-26 04:22:00,
2013-04-25 23:27:00,59.4,34.3,30.24,ESE,122,19.0,24.0,39,0.00,,,0.00,meteohub,2013-04-26 04:27:00,
2013-04-25 23:32:00,59.4,34.3,30.25,South,185,8.0,23.0,39,0.00,,,0.00,meteohub,2013-04-26 04:32:00,
2013-04-25 23:37:00,59.2,34.9,30.25,South,186,12.0,23.0,40,0.00,,,0.00,meteohub,2013-04-26 04:37:00,
2013-04-25 23:42:00,59.2,34.9,30.25,SE,146,12.0,23.0,40,0.00,,,0.00,meteohub,2013-04-26 04:42:00,
2013-04-25 23:47:00,59.2,34.9,30.25,SE,134,8.0,19.0,40,0.00,,,0.00,meteohub,2013-04-26 04:47:00,
2013-04-25 23:52:00,59.2,34.9,30.25,SE,135,18.0,19.0,40,0.00,,,0.00,meteohub,2013-04-26 04:52:00,
2013-04-25 23:57:00,59.2,34.9,30.25,SE,129,8.0,20.0,40,0.00,,,0.00,meteohub,2013-04-26 04:57:00,